Weather History for KLEB - August, 2013

Change the Weather History Date:

Sunday, August 18, 2013

  Actual Average Record
Temperature  
Mean Temperature 65 °F -  
Max Temperature 78 °F 80 °F 94 °F (1987)
Min Temperature 53 °F 56 °F 39 °F (1941)
Growing Degree Days 15 (Base 50)    
Moisture  
Dew Point 56 °F    
Average Humidity 88    
Maximum Humidity 100    
Minimum Humidity 54    
Precipitation  
Precipitation 0.01 in - - ()
Sea Level Pressure  
Sea Level Pressure 30.24 in    
Wind  
Wind Speed 1 mph (SSE)    
Max Wind Speed 6 mph    
Max Gust Speed -    
Visibility 6 miles    
Events Fog    
Averages and records for this station are not official NWS values.
T = Trace of Precipitation, MM = Missing Value Source: NWS Daily Summary

Daily Weather History Graph

Daily Weather History Graph

Search for Another Location

Airport or City:

Trip Planner

Search our weather history database for the weather conditions in past years. The results will help you decide how hot, cold, wet, or windy it might be!

Date:

Astronomy

Aug. 18, 2013 Rise Set
Actual Time 5:57 AM EDT 7:47 PM EDT
Civil Twilight 5:26 AM EDT 8:18 PM EDT
Nautical Twilight 4:49 AM EDT 8:55 PM EDT
Astronomical Twilight 4:08 AM EDT 9:36 PM EDT
Moon 5:53 PM EDT (8/18) 3:00 AM EDT (8/18)
Length of Visible Light 14h 51m
Length of Day
13h 50m
Waxing Gibbous, 92% of the Moon is Illuminated
Aug 18
Waxing Gibbous
Aug 20
Full
Aug 28
Last Quarter
Sep 5
New
Sep 12
First Quarter

Hourly Weather History & Observations

Time (EDT) Temp. Dew Point Humidity Pressure Visibility Wind Dir Wind Speed Gust Speed Precip Events Conditions
12:53 AM 55.9 °F 54.0 °F 93% 30.27 in 10.0 mi ENE 3.5 mph - N/A   Clear
1:09 AM 55.4 °F 53.6 °F 94% 30.29 in 10.0 mi ENE 3.5 mph - N/A   Scattered Clouds
1:53 AM 55.0 °F 53.1 °F 93% 30.26 in 8.0 mi Calm Calm - N/A   Partly Cloudy
2:09 AM 53.6 °F 51.8 °F 94% 30.29 in 10.0 mi Calm Calm - N/A   Partly Cloudy
2:53 AM 54.0 °F 52.0 °F 93% 30.27 in 4.0 mi Calm Calm - N/A   Mostly Cloudy
3:18 AM 53.6 °F 51.8 °F 94% 30.29 in 7.0 mi Calm Calm - 0.01 in   Scattered Clouds
3:53 AM 53.1 °F 52.0 °F 96% 30.27 in 7.0 mi Calm Calm - 0.01 in   Clear
4:07 AM 53.6 °F 51.8 °F 94% 30.28 in 5.0 mi Calm Calm - N/A   Scattered Clouds
4:16 AM 53.6 °F 51.8 °F 94% 30.28 in 7.0 mi Calm Calm - N/A   Mostly Cloudy
4:53 AM 54.0 °F 52.0 °F 93% 30.26 in 10.0 mi Calm Calm - N/A   Overcast
5:14 AM 55.4 °F 53.6 °F 94% 30.28 in 1.5 mi Calm Calm - N/A   Overcast
5:19 AM 55.4 °F 53.6 °F 94% 30.28 in 0.8 mi Calm Calm - N/A   Mist
5:29 AM 55.4 °F 53.6 °F 94% 30.29 in 1.0 mi Calm Calm - N/A   Overcast
5:40 AM 55.4 °F 53.6 °F 94% 30.29 in 0.8 mi Calm Calm - N/A   Mist
5:53 AM 55.0 °F 55.0 °F 100% 30.27 in 0.8 mi Calm Calm - N/A   Mist
5:57 AM 55.4 °F 55.4 °F 100% 30.29 in 1.0 mi Calm Calm - N/A   Overcast
6:05 AM 55.4 °F 55.4 °F 100% 30.29 in 0.8 mi Calm Calm - N/A   Mist
6:19 AM 55.4 °F 55.4 °F 100% 30.29 in 0.2 mi Calm Calm - N/A Fog Fog
6:45 AM 55.4 °F 53.6 °F 94% 30.29 in 1.0 mi Calm Calm - N/A   Overcast
6:53 AM 55.0 °F 54.0 °F 96% 30.28 in 1.0 mi NE 3.5 mph - N/A   Overcast
7:09 AM 55.4 °F 53.6 °F 94% 30.29 in 2.5 mi Calm Calm - N/A   Overcast
7:18 AM 55.4 °F 53.6 °F 94% 30.29 in 1.0 mi Calm Calm - N/A   Overcast
7:25 AM 55.4 °F 55.4 °F 100% 30.29 in 0.5 mi Calm Calm - N/A Fog Fog
7:48 AM 55.4 °F 55.4 °F 100% 30.29 in 1.5 mi Calm Calm - N/A   Overcast
7:53 AM 55.9 °F 55.0 °F 97% 30.28 in 1.5 mi Calm Calm - N/A   Overcast
8:04 AM 55.4 °F 55.4 °F 100% 30.30 in 2.5 mi Calm Calm - N/A   Overcast
8:19 AM 57.2 °F 55.4 °F 94% 30.29 in 3.0 mi Calm Calm - N/A   Overcast
8:53 AM 57.9 °F 55.9 °F 93% 30.27 in 6.0 mi Calm Calm - N/A   Overcast
9:36 AM 60.8 °F 55.4 °F 82% 30.28 in 10.0 mi Calm Calm - N/A   Scattered Clouds
9:53 AM 63.0 °F 55.9 °F 78% 30.27 in 10.0 mi Calm Calm - N/A   Scattered Clouds
10:53 AM 68.0 °F 57.9 °F 70% 30.26 in 10.0 mi Calm Calm - N/A   Clear
11:53 AM 72.0 °F 59.0 °F 64% 30.24 in 10.0 mi Calm Calm - N/A   Clear
12:53 PM 73.0 °F 59.0 °F 61% 30.22 in 10.0 mi Calm Calm - N/A   Clear
1:53 PM 75.9 °F 60.1 °F 58% 30.19 in 10.0 mi Calm Calm - N/A   Clear
2:53 PM 77.0 °F 60.1 °F 56% 30.16 in 10.0 mi South 4.6 mph - N/A   Clear
3:53 PM 77.0 °F 59.0 °F 54% 30.14 in 10.0 mi SSW 5.8 mph - N/A   Clear
4:53 PM 77.0 °F 61.0 °F 58% 30.12 in 10.0 mi WSW 5.8 mph - N/A   Partly Cloudy
5:53 PM 75.0 °F 62.1 °F 64% 30.11 in 10.0 mi South 4.6 mph - N/A   Clear
6:53 PM 70.0 °F 64.9 °F 84% 30.10 in 10.0 mi South 3.5 mph - N/A   Clear
7:53 PM 64.9 °F 61.0 °F 87% 30.11 in 10.0 mi Calm Calm - N/A   Clear
8:53 PM 62.1 °F 59.0 °F 90% 30.10 in 10.0 mi Calm Calm - N/A   Clear
9:53 PM 60.1 °F 57.9 °F 93% 30.10 in 10.0 mi Calm Calm - N/A   Clear
10:53 PM 59.0 °F 57.0 °F 93% 30.08 in 7.0 mi SSE 3.5 mph - N/A   Clear
11:53 PM 59.0 °F 57.0 °F 93% 30.07 in 7.0 mi Calm Calm - N/A   Clear